• Em Portugal
  • Lista de países
  • Para 7 dias
  • Temperatura da água
  • Mapas de satélite
  • Mapa do tempo
  • Widgets de tempo
  • user-avatar
    Iniciar Sessão

    Previsão horária em Buenos Aires

    Hoje, 18 Fevereiro, Domingo

    Tempo Temperatura Precipitação Vento Pressão Humidade
    00:00 +28°C° 0 mm 5 m/s 756 mmHg 53%
    01:00 +28°C° 0 mm 5 m/s 756 mmHg 51%
    02:00 +28°C° 0 mm 5 m/s 755 mmHg 50%
    03:00 +28°C° 0 mm 5 m/s 755 mmHg 51%
    04:00 +27°C° 0 mm 5 m/s 755 mmHg 52%
    05:00 +27°C° 0 mm 5 m/s 755 mmHg 53%
    06:00 +28°C° 0 mm 5 m/s 755 mmHg 50%
    07:00 +29°C° 0 mm 5 m/s 755 mmHg 47%
    08:00 +32°C° 0 mm 5 m/s 755 mmHg 44%
    09:00 +34°C° 0 mm 4 m/s 754 mmHg 38%
    10:00 +36°C° 0 mm 4 m/s 754 mmHg 32%
    11:00 +40°C° 0 mm 4 m/s 753 mmHg 26%
    12:00 +40°C° 0 mm 4 m/s 753 mmHg 25%
    13:00 +39°C° 0 mm 3 m/s 752 mmHg 24%
    14:00 +40°C° 0 mm 3 m/s 751 mmHg 23%
    15:00 +39°C° 0 mm 3 m/s 751 mmHg 25%
    16:00 +38°C° 0 mm 3 m/s 751 mmHg 27%
    17:00 +38°C° 0 mm 4 m/s 750 mmHg 29%
    18:00 +36°C° 0 mm 3 m/s 751 mmHg 32%
    19:00 +35°C° 0 mm 3 m/s 751 mmHg 35%
    20:00 +34°C° 0 mm 3 m/s 751 mmHg 38%
    21:00 +33°C° 0 mm 3 m/s 751 mmHg 40%
    22:00 +31°C° 0 mm 3 m/s 751 mmHg 43%
    23:00 +30°C° 0 mm 3 m/s 751 mmHg 45%

    Amanhã, 19 Fevereiro, Segunda-feira

    Tempo Temperatura Precipitação Vento Pressão Humidade
    00:00 +30°C° 0,3 mm 2 m/s 751 mmHg 50%
    01:00 +29°C° 0,3 mm 2 m/s 751 mmHg 55%
    02:00 +28°C° 0,3 mm 2 m/s 751 mmHg 60%
    03:00 +28°C° 0,8 mm 2 m/s 751 mmHg 64%
    04:00 +27°C° 0,8 mm 2 m/s 751 mmHg 67%
    05:00 +27°C° 0,8 mm 3 m/s 751 mmHg 71%
    06:00 +27°C° 0,2 mm 3 m/s 751 mmHg 69%
    07:00 +28°C° 0,2 mm 3 m/s 752 mmHg 68%
    08:00 +29°C° 0,2 mm 3 m/s 752 mmHg 66%
    09:00 +31°C° 0,2 mm 3 m/s 752 mmHg 58%
    10:00 +34°C° 0,2 mm 3 m/s 752 mmHg 50%
    11:00 +36°C° 0,2 mm 3 m/s 751 mmHg 42%
    12:00 +36°C° 0 mm 3 m/s 751 mmHg 39%
    13:00 +37°C° 0 mm 3 m/s 750 mmHg 37%
    14:00 +37°C° 0 mm 4 m/s 750 mmHg 34%
    15:00 +37°C° 0 mm 3 m/s 750 mmHg 35%
    16:00 +37°C° 0 mm 3 m/s 750 mmHg 35%
    17:00 +37°C° 0 mm 2 m/s 749 mmHg 35%
    18:00 +35°C° 0,1 mm 2 m/s 750 mmHg 40%
    19:00 +34°C° 0,1 mm 2 m/s 750 mmHg 44%
    20:00 +31°C° 0,1 mm 2 m/s 751 mmHg 48%
    21:00 +31°C° 0 mm 2 m/s 751 mmHg 50%
    22:00 +31°C° 0 mm 2 m/s 751 mmHg 52%
    23:00 +30°C° 0 mm 2 m/s 751 mmHg 54%

    Depois de amanhã, 20 Fevereiro, Terça-feira

    Tempo Temperatura Precipitação Vento Pressão Humidade
    00:00 +29°C° 0,1 mm 2 m/s 751 mmHg 57%
    01:00 +29°C° 0,1 mm 3 m/s 751 mmHg 60%
    02:00 +28°C° 0,1 mm 3 m/s 752 mmHg 63%
    03:00 +27°C° 0,4 mm 3 m/s 752 mmHg 67%
    04:00 +26°C° 0,4 mm 3 m/s 752 mmHg 71%
    05:00 +26°C° 0,4 mm 2 m/s 752 mmHg 75%
    06:00 +26°C° 0 mm 3 m/s 753 mmHg 73%
    07:00 +27°C° 0 mm 3 m/s 754 mmHg 71%
    08:00 +28°C° 0 mm 3 m/s 754 mmHg 69%
    09:00 +30°C° 0 mm 3 m/s 754 mmHg 63%
    10:00 +32°C° 0 mm 4 m/s 754 mmHg 56%
    11:00 +34°C° 0 mm 4 m/s 754 mmHg 50%
    12:00 +35°C° 0,4 mm 4 m/s 754 mmHg 47%
    13:00 +36°C° 0,4 mm 4 m/s 754 mmHg 44%
    14:00 +36°C° 0,4 mm 5 m/s 753 mmHg 41%
    15:00 +35°C° 0,5 mm 5 m/s 753 mmHg 48%
    16:00 +33°C° 0,5 mm 6 m/s 754 mmHg 54%
    17:00 +32°C° 0,5 mm 7 m/s 754 mmHg 61%
    18:00 +29°C° 0,8 mm 7 m/s 755 mmHg 65%
    19:00 +27°C° 0,8 mm 7 m/s 755 mmHg 69%
    20:00 +26°C° 0,8 mm 7 m/s 756 mmHg 74%
    21:00 +24°C° 0,8 mm 7 m/s 757 mmHg 74%
    22:00 +24°C° 0,8 mm 7 m/s 758 mmHg 75%
    23:00 +23°C° 0,8 mm 7 m/s 758 mmHg 75%

    21 Fevereiro, Quarta-feira

    Tempo Temperatura Precipitação Vento Pressão Humidade
    00:00 +23°C° 0 mm 6 m/s 759 mmHg 76%
    01:00 +23°C° 0 mm 5 m/s 759 mmHg 77%
    02:00 +22°C° 0 mm 4 m/s 759 mmHg 77%
    03:00 +22°C° 0 mm 4 m/s 759 mmHg 78%
    04:00 +21°C° 0 mm 4 m/s 759 mmHg 79%
    05:00 +21°C° 0 mm 4 m/s 759 mmHg 80%
    06:00 +21°C° 0 mm 4 m/s 760 mmHg 75%
    07:00 +22°C° 0 mm 4 m/s 760 mmHg 71%
    08:00 +23°C° 0 mm 4 m/s 761 mmHg 67%
    09:00 +26°C° 0 mm 4 m/s 760 mmHg 56%
    10:00 +29°C° 0 mm 4 m/s 760 mmHg 45%
    11:00 +32°C° 0 mm 4 m/s 760 mmHg 35%
    12:00 +33°C° 0 mm 5 m/s 760 mmHg 32%
    13:00 +33°C° 0 mm 5 m/s 759 mmHg 29%
    14:00 +34°C° 0 mm 5 m/s 759 mmHg 26%
    15:00 +33°C° 0 mm 6 m/s 758 mmHg 29%
    16:00 +32°C° 0 mm 6 m/s 758 mmHg 33%
    17:00 +32°C° 0 mm 6 m/s 758 mmHg 36%
    18:00 +29°C° 0 mm 6 m/s 759 mmHg 42%
    19:00 +27°C° 0 mm 6 m/s 759 mmHg 47%
    20:00 +24°C° 0 mm 6 m/s 760 mmHg 52%
    21:00 +25°C° 0 mm 5 m/s 760 mmHg 54%
    22:00 +23°C° 0 mm 5 m/s 760 mmHg 56%
    23:00 +22°C° 0 mm 4 m/s 761 mmHg 58%

    22 Fevereiro, Quinta-feira

    Tempo Temperatura Precipitação Vento Pressão Humidade
    00:00 +22°C° 0 mm 4 m/s 760 mmHg 60%
    01:00 +22°C° 0 mm 3 m/s 760 mmHg 62%
    02:00 +21°C° 0 mm 3 m/s 760 mmHg 65%
    03:00 +21°C° 0 mm 3 m/s 760 mmHg 67%
    04:00 +20°C° 0 mm 3 m/s 760 mmHg 70%
    05:00 +20°C° 0 mm 2 m/s 760 mmHg 72%
    06:00 +21°C° 0 mm 2 m/s 761 mmHg 67%
    07:00 +24°C° 0 mm 3 m/s 761 mmHg 62%
    08:00 +25°C° 0 mm 3 m/s 761 mmHg 58%
    09:00 +27°C° 0 mm 2 m/s 761 mmHg 48%
    10:00 +29°C° 0 mm 2 m/s 761 mmHg 39%
    11:00 +31°C° 0 mm 2 m/s 761 mmHg 29%
    12:00 +32°C° 0 mm 2 m/s 760 mmHg 27%
    13:00 +34°C° 0 mm 2 m/s 759 mmHg 24%
    14:00 +35°C° 0 mm 3 m/s 759 mmHg 21%
    15:00 +34°C° 0 mm 3 m/s 759 mmHg 22%
    16:00 +34°C° 0 mm 4 m/s 758 mmHg 23%
    17:00 +33°C° 0 mm 4 m/s 758 mmHg 23%
    18:00 +30°C° 0 mm 4 m/s 758 mmHg 30%
    19:00 +28°C° 0 mm 5 m/s 759 mmHg 37%
    20:00 +26°C° 0 mm 5 m/s 759 mmHg 43%
    21:00 +26°C° 0 mm 5 m/s 759 mmHg 47%
    22:00 +25°C° 0 mm 5 m/s 759 mmHg 50%
    23:00 +25°C° 0 mm 5 m/s 759 mmHg 53%

    23 Fevereiro, Sexta-feira

    Tempo Temperatura Precipitação Vento Pressão Humidade
    00:00 +23°C° 0 mm 5 m/s 759 mmHg 57%
    01:00 +23°C° 0 mm 5 m/s 759 mmHg 60%
    02:00 +22°C° 0 mm 4 m/s 758 mmHg 64%
    03:00 +22°C° 0 mm 4 m/s 759 mmHg 63%
    04:00 +22°C° 0 mm 4 m/s 759 mmHg 63%
    05:00 +21°C° 0 mm 4 m/s 759 mmHg 63%
    06:00 +23°C° 0 mm 4 m/s 760 mmHg 60%
    07:00 +25°C° 0 mm 4 m/s 760 mmHg 56%
    08:00 +26°C° 0 mm 4 m/s 761 mmHg 53%
    09:00 +28°C° 0 mm 3 m/s 760 mmHg 46%
    10:00 +30°C° 0 mm 2 m/s 760 mmHg 39%
    11:00 +32°C° 0 mm 2 m/s 759 mmHg 31%
    12:00 +34°C° 0 mm 2 m/s 759 mmHg 28%
    13:00 +36°C° 0 mm 2 m/s 758 mmHg 24%
    14:00 +37°C° 0 mm 2 m/s 758 mmHg 20%
    15:00 +36°C° 0 mm 2 m/s 757 mmHg 20%
    16:00 +36°C° 0 mm 2 m/s 757 mmHg 21%
    17:00 +35°C° 0 mm 2 m/s 757 mmHg 21%
    18:00 +33°C° 0 mm 3 m/s 757 mmHg 26%
    19:00 +32°C° 0 mm 4 m/s 758 mmHg 31%
    20:00 +29°C° 0 mm 4 m/s 758 mmHg 35%
    21:00 +28°C° 0 mm 4 m/s 758 mmHg 39%
    22:00 +28°C° 0 mm 4 m/s 758 mmHg 44%
    23:00 +27°C° 0 mm 5 m/s 759 mmHg 48%
    Mostrar mais